Notices

What's New in latest Release from April 7th, 2021:

- Updated Glossary, including Speed of Maximum Gust, and Total Hourly Precipitation

- Updated national and regional climate services offices contacts and prices information

- Addition of station inventory lists for 1981-2010, 1971-2000, and 1961-1990 Normals.

If you haven't already, please take our survey and provide feedback about our website: https://eccc.sondage-survey.ca/f/LanguageSelection.aspx?s=442ca660-fcf1-47c0-95a9-59707d6fd709

Hourly Data Report for October 15, 2020

MUSKOKA
ONTARIO
Current Station Operator: NAVCAN

44°58'29.000" N
79°18'12.000" W
281.90 m
6115529
71532
YQA

Download Data

Hourly Data (October 2020)
Hourly Data Report for October 15, 2020
TIME
LST
Temp Definition
°C
Dew Point Definition
°C
Rel Hum Definition
%
Precip. Amount Definition
mm

Wind Dir Definition
10's deg

Wind Spd Definition
km/h
Visibility Definition
km
Stn Press Definition
kPa
Hmdx Definition


Wind Chill Definition


Weather Definition


00:00 11.7 1.9 51 0.0 13 26 16.1 97.10     LegendNANA
01:00 11.4 4.1 60 0.0 15 22 16.1 96.95     Rain
02:00 11.7 5.8 67 0.0 14 28 16.1 96.87     Rain
03:00 10.2 7.3 82 0.2 13 11 16.1 96.81     Rain
04:00 9.9 8.5 91 1.2 14 15 14.5 96.79     Rain
05:00 10.7 9.5 92 0.5 13 17 16.1 96.72     LegendNANA
06:00 10.8 9.9 94 0.2 13 11 16.1 96.71     Rain
07:00 11.6 10.4 92 0.2 16 17 16.1 96.73     Rain
08:00
09:00 12.2 10.6 90 0.5 16 21 16.1 96.80     LegendNANA
10:00 12.6 8.1 74 0.0 19 26 16.1 96.80     LegendNANA
11:00 11.6 9.3 85 0.5 19 17 16.1 96.93     Rain
12:00 11.4 9.5 88 0.0 19 17 16.1 97.04     LegendNANA
13:00 11.5 9.2 86 0.5 20 15 16.1 97.06     LegendNANA
14:00 10.9 7.4 79 0.0 27 22 16.1 97.19     Rain
15:00 9.2 8.2 93 1.5 LegendMM 9 14.5 97.35     Rain
16:00 8.5 7.4 93 0.5 23 9 16.1 97.46     Rain
17:00 8.4 7.2 92 0.0 22 9 16.1 97.55     LegendNANA
18:00 8.0 7.4 96 0.0 21 5 16.1 97.68     LegendNANA
19:00 7.5 6.3 92 0.0 21 9 16.1 97.74     LegendNANA
20:00 7.4 6.4 93 0.0 22 11 16.1 97.80     Rain
21:00 7.0 6.1 94 0.8 20 11 16.1 97.85     Rain
22:00 6.8 6.2 96 0.2 20 8 16.1 97.91     Rain
23:00 6.6 5.7 94 1.0 20 11 16.1 97.90     Rain

Notes on Data Quality.

Legend

  • E = Estimated
  • M = Missing
  • NA = Not Available*
  • [empty] = Indicates an unobserved value
Date modified: